User: anonymous   Login
Location: Newark
(15.4608°S, 41.1635°W)
Time: 22:50:31
(UTC+00:00)
Language:

Vanguard 2 Rocket - Orbit

View from above orbital plane
View from above orbital plane
View from above satellite
View from above satellite

Ground track
Ground track

The orbit data is extracted from the following two-line orbital elements,

1 00012U 59001B   21211.49069570 -.00000084  00000-0 -43042-4 0  9996
2 00012  32.9015   3.1987 1665219  61.3263 314.4566 11.44384504326727
Epoch (UTC): 30 July 2021 11:46:36
Eccentricity: 0.1665219
inclination: 32.9015°
perigee height: 555 km
apogee height: 3325 km
right ascension of ascending node: 3.1987°
argument of perigee: 61.3263°
revolutions per day: 11.44384504
mean anomaly at epoch: 314.4566°
orbit number at epoch: 32672

The dashed part of the orbit path shows where the satellite is in the earth's shadow,  

DLR